EW9039 Weather Reports


Display with metric or nautical units.
time (UTC)temp
F
wind
direction
speed
MPH
gust
MPH
rain 1hr
in
rain 24hr
in
rain mn
in
humidity
%
barometer
mb
20200403080538 39 254 0.0 3.0 0.00 0.00 0.00 72 1017.1
20200403080037 40 254 1.0 3.0 0.00 0.00 0.00 74 1017.2
20200403075536 40 254 1.0 3.0 0.00 0.00 0.00 73 1017.2
20200403075036 40 254 1.0 3.0 0.00 0.00 0.00 73 1017.2
20200403074536 40 254 1.0 3.0 0.00 0.00 0.00 71 1017.2
20200403074036 40 254 0.0 3.0 0.00 0.00 0.00 72 1017.2
20200403073535 40 254 0.0 0.0 0.00 0.00 0.00 70 1017.2
20200403073035 40 254 0.0 0.0 0.00 0.00 0.00 69 1017.2
20200403072535 40 254 0.0 0.0 0.00 0.00 0.00 69 1017.1
20200403072036 40 254 0.0 0.0 0.00 0.00 0.00 70 1017.1
20200403071535 41 254 0.0 0.0 0.00 0.00 0.00 70 1017.1
20200403071036 41 254 0.0 0.0 0.00 0.00 0.00 70 1017.2
20200403070536 41 254 0.0 0.0 0.00 0.00 0.00 67 1017.2
20200403070035 41 254 0.0 0.0 0.00 0.00 0.00 67 1017.2
20200403065537 41 254 0.0 0.0 0.00 0.00 0.00 67 1017.2
20200403065041 42 254 0.0 0.0 0.00 0.00 0.00 69 1017.2
20200403064535 42 254 0.0 0.0 0.00 0.00 0.00 70 1017.2
20200403064033 42 254 0.0 0.0 0.00 0.00 0.00 67 1017.2
20200403063534 42 254 0.0 0.0 0.00 0.00 0.00 67 1017.2
20200403063034 42 254 0.0 0.0 0.00 0.00 0.00 68 1017.2
20200403062535 42 254 0.0 0.0 0.00 0.00 0.00 69 1017.2
20200403062034 43 254 0.0 0.0 0.00 0.00 0.00 71 1017.1
20200403061535 43 254 0.0 0.0 0.00 0.00 0.00 71 1017.2
20200403061034 43 254 0.0 2.0 0.00 0.00 0.00 70 1017.1
20200403060533 43 254 0.0 2.0 0.00 0.00 0.00 71 1017.1
20200403060032 44 254 0.0 2.0 0.00 0.00 0.00 70 1017.2
20200403055531 44 254 0.0 2.0 0.00 0.00 0.00 70 1017.2
20200403055029 44 254 1.0 2.0 0.00 0.00 0.00 69 1017.1
20200403054530 44 254 0.0 2.0 0.00 0.00 0.00 70 1017.1
20200403054029 44 254 0.0 0.0 0.00 0.00 0.00 69 1017.1
20200403053530 45 254 0.0 0.0 0.00 0.00 0.00 68 1017.1
20200403053030 45 254 0.0 1.0 0.00 0.00 0.00 68 1017.1
20200403052531 45 254 0.0 2.0 0.00 0.00 0.00 66 1017.1
20200403052030 45 254 0.0 2.0 0.00 0.00 0.00 66 1017.1
20200403051531 45 254 1.0 3.0 0.00 0.00 0.00 67 1017.1
20200403051030 46 254 1.0 3.0 0.00 0.00 0.00 68 1017.1
20200403050529 46 254 1.0 2.0 0.00 0.00 0.00 68 1017.2
20200403050026 46 254 1.0 3.0 0.00 0.00 0.00 67 1017.2
20200403045530 47 254 1.0 3.0 0.00 0.00 0.00 67 1017.1
20200403045027 47 254 1.0 3.0 0.00 0.00 0.00 66 1017.1
20200403044528 47 254 1.0 3.0 0.00 0.00 0.00 66 1017.1
20200403044027 47 254 1.0 3.0 0.00 0.00 0.00 65 1017.0
20200403043526 47 254 2.0 4.0 0.00 0.00 0.00 65 1017.0
20200403043027 48 254 1.0 4.0 0.00 0.00 0.00 65 1017.0
20200403042527 48 254 2.0 4.0 0.00 0.00 0.00 64 1017.0
20200403042028 48 254 2.0 4.0 0.00 0.00 0.00 64 1016.9
20200403041527 49 254 1.0 3.0 0.00 0.00 0.00 63 1016.9
20200403041026 49 254 1.0 2.0 0.00 0.00 0.00 62 1016.7
20200403040527 49 254 0.0 2.0 0.00 0.00 0.00 61 1016.8
20200403040025 50 254 0.0 2.0 0.00 0.00 0.00 59 1016.8
20200403035526 50 254 1.0 2.0 0.00 0.00 0.00 59 1016.7
20200403035026 50 254 1.0 2.0 0.00 0.00 0.00 59 1016.7
20200403034525 51 254 1.0 3.0 0.00 0.00 0.00 58 1016.6
20200403034026 51 254 1.0 3.0 0.00 0.00 0.00 57 1016.6
20200403033525 51 254 1.0 3.0 0.00 0.00 0.00 56 1016.6
20200403033026 52 254 1.0 3.0 0.00 0.00 0.00 55 1016.5
20200403032526 53 254 1.0 3.0 0.00 0.00 0.00 54 1016.5
20200403032024 53 254 1.0 3.0 0.00 0.00 0.00 53 1016.5
20200403031522 53 254 1.0 4.0 0.00 0.00 0.00 52 1016.4
20200403031022 54 254 1.0 4.0 0.00 0.00 0.00 50 1016.3
20200403030523 55 254 1.0 3.0 0.00 0.00 0.00 48 1016.3
20200403030023 55 254 1.0 3.0 0.00 0.00 0.00 47 1016.2
20200403025521 56 254 1.0 3.0 0.00 0.00 0.00 45 1016.2
20200403025022 56 254 1.0 3.0 0.00 0.00 0.00 45 1016.2
20200403024522 57 254 1.0 3.0 0.00 0.00 0.00 43 1016.2
20200403024020 58 254 1.0 3.0 0.00 0.00 0.00 42 1016.1
20200403023522 58 254 1.0 2.0 0.00 0.00 0.00 42 1016.1
20200403023018 59 254 1.0 5.0 0.00 0.00 0.00 40 1016.0
20200403022520 59 254 1.0 5.0 0.00 0.00 0.00 41 1016.0
20200403022019 59 254 1.0 5.0 0.00 0.00 0.00 40 1015.9
20200403021520 60 254 1.0 5.0 0.00 0.00 0.00 40 1015.9
20200403021019 60 232 1.0 4.0 0.00 0.00 0.00 40 1015.8
20200403020520 60 270 1.0 6.0 0.00 0.00 0.00 39 1015.7
20200403020020 60 309 1.0 6.0 0.00 0.00 0.00 39 1015.8
20200403015517 60 277 3.0 8.0 0.00 0.00 0.00 38 1015.7
20200403015019 61 316 3.0 9.0 0.00 0.00 0.00 36 1015.7
20200403014519 61 255 3.0 9.0 0.00 0.00 0.00 35 1015.6
20200403014016 61 261 3.0 9.0 0.00 0.00 0.00 35 1015.6
20200403013516 62 296 3.0 10.0 0.00 0.00 0.00 35 1015.5
20200403013016 62 273 3.0 12.0 0.00 0.00 0.00 35 1015.5
20200403012512 63 296 3.0 12.0 0.00 0.00 0.00 35 1015.4
20200403012014 63 220 4.0 13.0 0.00 0.00 0.00 34 1015.5
20200403011514 63 292 4.0 13.0 0.00 0.00 0.00 34 1015.5
20200403011013 64 225 4.0 10.0 0.00 0.00 0.00 33 1015.4
20200403010512 64 277 5.0 14.0 0.00 0.00 0.00 33 1015.5
20200403010012 64 275 5.0 14.0 0.00 0.00 0.00 33 1015.4
20200403005512 65 238 3.0 10.0 0.00 0.00 0.00 33 1015.4
20200403005008 65 324 3.0 10.0 0.00 0.00 0.00 33 1015.3
20200403004508 65 260 4.0 10.0 0.00 0.00 0.00 32 1015.2
20200403004008 66 286 4.0 10.0 0.00 0.00 0.00 32 1015.3
20200403003508 66 321 4.0 10.0 0.00 0.00 0.00 31 1015.3
20200403003010 66 300 4.0 10.0 0.00 0.00 0.00 30 1015.3
20200403002508 67 195 4.0 10.0 0.00 0.00 0.00 28 1015.3
20200403002009 67 236 3.0 11.0 0.00 0.00 0.00 25 1015.3
20200403001508 67 252 2.0 11.0 0.00 0.00 0.00 26 1015.4
20200403001017 67 267 3.0 11.0 0.00 0.00 0.00 25 1015.4
20200403000508 67 269 3.0 11.0 0.00 0.00 0.00 22 1015.3
20200403000010 67 269 3.0 10.0 0.00 0.00 0.00 24 1015.3
20200402235509 67 219 3.0 10.0 0.00 0.00 0.00 22 1015.3
20200402235010 67 259 4.0 10.0 0.00 0.00 0.00 22 1015.3
20200402234508 67 313 4.0 9.0 0.00 0.00 0.00 24 1015.3
20200402234010 67 296 3.0 10.0 0.00 0.00 0.00 22 1015.3
20200402233510 68 316 3.0 10.0 0.00 0.00 0.00 20 1015.3
20200402233008 67 110 4.0 10.0 0.00 0.00 0.00 20 1015.2
20200402232508 68 264 3.0 10.0 0.00 0.00 0.00 18 1015.3
20200402232008 68 317 3.0 9.0 0.00 0.00 0.00 20 1015.3
20200402231509 67 244 3.0 9.0 0.00 0.00 0.00 18 1015.4
20200402231010 67 342 3.0 9.0 0.00 0.00 0.00 20 1015.3
20200402230509 68 331 3.0 9.0 0.00 0.00 0.00 18 1015.3
20200402230009 67 346 3.0 9.0 0.00 0.00 0.00 17 1015.3
20200402225509 67 315 3.0 10.0 0.00 0.00 0.00 18 1015.4
20200402225009 67 340 3.0 10.0 0.00 0.00 0.00 18 1015.4
20200402224509 68 298 4.0 10.0 0.00 0.00 0.00 19 1015.4
20200402224008 68 346 3.0 10.0 0.00 0.00 0.00 19 1015.4
20200402223510 68 253 3.0 8.0 0.00 0.00 0.00 21 1015.4
20200402223008 68 12 3.0 8.0 0.00 0.00 0.00 22 1015.5
20200402222508 68 323 3.0 8.0 0.00 0.00 0.00 22 1015.6
20200402222006 68 279 3.0 8.0 0.00 0.00 0.00 21 1015.6
20200402221507 68 325 3.0 6.0 0.00 0.00 0.00 23 1015.6
20200402221006 68 355 3.0 8.0 0.00 0.00 0.00 22 1015.6
20200402220507 68 333 3.0 8.0 0.00 0.00 0.00 23 1015.6
20200402220004 68 300 3.0 9.0 0.00 0.00 0.00 24 1015.6
20200402215505 68 86 3.0 9.0 0.00 0.00 0.00 22 1015.6
20200402215006 67 313 3.0 9.0 0.00 0.00 0.00 22 1015.6
20200402214505 67 350 3.0 12.0 0.00 0.00 0.00 23 1015.7
20200402214005 67 332 3.0 12.0 0.00 0.00 0.00 23 1015.7
20200402213502 66 259 3.0 13.0 0.00 0.00 0.00 24 1015.7
20200402213004 67 338 4.0 13.0 0.00 0.00 0.00 24 1015.8
20200402212502 67 319 3.0 10.0 0.00 0.00 0.00 23 1015.9
20200402212004 67 355 4.0 10.0 0.00 0.00 0.00 23 1015.9
20200402211503 67 299 3.0 9.0 0.00 0.00 0.00 23 1015.9
20200402211004 67 240 3.0 9.0 0.00 0.00 0.00 26 1015.8
20200402210503 67 348 3.0 13.0 0.00 0.00 0.00 28 1015.8
20200402210002 66 261 4.0 13.0 0.00 0.00 0.00 29 1015.9
20200402205502 66 205 4.0 13.0 0.00 0.00 0.00 27 1016.0
20200402205002 65 243 5.0 13.0 0.00 0.00 0.00 28 1016.0
20200402204502 65 280 5.0 12.0 0.00 0.00 0.00 26 1016.0
20200402204004 66 295 5.0 12.0 0.00 0.00 0.00 28 1015.9
20200402203505 66 279 5.0 12.0 0.00 0.00 0.00 27 1015.9
20200402203004 66 300 4.0 12.0 0.00 0.00 0.00 29 1015.9
20200402202502 66 273 4.0 10.0 0.00 0.00 0.00 30 1016.0
20200402202004 66 229 4.0 10.0 0.00 0.00 0.00 32 1016.0
20200402201502 66 271 4.0 12.0 0.00 0.00 0.00 31 1016.1
20200402201001 66 318 3.0 14.0 0.00 0.00 0.00 30 1016.1
20200402200500 65 88 3.0 14.0 0.00 0.00 0.00 31 1016.1
20200402200002 65 268 5.0 14.0 0.00 0.00 0.00 30 1016.2
20200402195501 64 289 5.0 14.0 0.00 0.00 0.00 28 1016.2
20200402195000 65 244 3.0 12.0 0.00 0.00 0.00 28 1016.2
20200402194500 64 258 3.0 12.0 0.00 0.00 0.00 33 1016.2
20200402194000 64 292 4.0 12.0 0.00 0.00 0.00 32 1016.1
20200402193500 63 246 4.0 14.0 0.00 0.00 0.00 32 1016.2
20200402193002 63 161 5.0 14.0 0.00 0.00 0.00 32 1016.2
20200402192500 62 260 6.0 14.0 0.00 0.00 0.00 32 1016.1
20200402192001 62 288 5.0 14.0 0.00 0.00 0.00 33 1016.2
20200402191458 63 237 5.0 15.0 0.00 0.00 0.00 33 1016.2
20200402191000 63 304 5.0 15.0 0.00 0.00 0.00 33 1016.2
20200402190458 63 332 4.0 15.0 0.00 0.00 0.00 33 1016.3
20200402185958 63 237 3.0 15.0 0.00 0.00 0.00 33 1016.3
20200402185459 63 248 3.0 12.0 0.00 0.00 0.00 35 1016.3
20200402184958 63 313 4.0 12.0 0.00 0.00 0.00 36 1016.3
20200402184459 63 253 3.0 10.0 0.00 0.00 0.00 37 1016.3
20200402183959 62 244 3.0 10.0 0.00 0.00 0.00 37 1016.4
20200402183458 62 292 3.0 11.0 0.00 0.00 0.00 36 1016.4
20200402182959 62 244 3.0 11.0 0.00 0.00 0.00 37 1016.4
20200402182456 62 277 3.0 8.0 0.00 0.00 0.00 38 1016.4
20200402181956 61 248 3.0 8.0 0.00 0.00 0.00 37 1016.4
20200402181456 60 281 3.0 8.0 0.00 0.00 0.00 39 1016.4
20200402180956 60 281 3.0 8.0 0.00 0.00 0.00 39 1016.4
20200402180456 60 302 2.0 7.0 0.00 0.00 0.00 40 1016.4
20200402175956 59 225 2.0 11.0 0.00 0.00 0.00 42 1016.5
20200402175457 59 244 3.0 11.0 0.00 0.00 0.00 44 1016.5
20200402174958 58 265 4.0 11.0 0.00 0.00 0.00 42 1016.4
20200402174457 58 283 4.0 11.0 0.00 0.00 0.00 42 1016.4
20200402173957 57 231 4.0 9.0 0.00 0.00 0.00 43 1016.4
20200402173458 57 267 3.0 11.0 0.00 0.00 0.00 43 1016.4
20200402172956 56 293 3.0 11.0 0.00 0.00 0.00 45 1016.3
20200402172457 56 246 3.0 11.0 0.00 0.00 0.00 46 1016.4
20200402171957 55 242 4.0 11.0 0.00 0.00 0.00 45 1016.4
20200402171457 55 285 3.0 10.0 0.00 0.00 0.00 46 1016.3
20200402170957 54 313 2.0 9.0 0.00 0.00 0.00 46 1016.3
20200402170457 54 259 3.0 9.0 0.00 0.00 0.00 50 1016.3
20200402165957 53 261 3.0 9.0 0.00 0.00 0.00 47 1016.3
20200402165453 53 229 3.0 8.0 0.00 0.00 0.00 52 1016.3
20200402164954 53 304 3.0 8.0 0.00 0.00 0.00 52 1016.3
20200402164455 52 314 2.0 8.0 0.00 0.00 0.00 53 1016.2
20200402163954 52 283 2.0 9.0 0.00 0.00 0.00 56 1016.2
20200402163454 51 259 3.0 9.0 0.00 0.00 0.00 57 1016.2
20200402162954 51 281 3.0 9.0 0.00 0.00 0.00 58 1016.2
20200402162453 51 277 3.0 8.0 0.00 0.00 0.00 58 1016.2
20200402161952 50 240 3.0 8.0 0.00 0.00 0.00 60 1016.3
20200402161453 50 301 3.0 8.0 0.00 0.00 0.00 61 1016.3
20200402160952 50 259 3.0 8.0 0.00 0.00 0.00 62 1016.2
20200402160452 49 299 3.0 9.0 0.00 0.00 0.00 63 1016.2
20200402155953 49 277 2.0 9.0 0.00 0.00 0.00 65 1016.2
20200402155452 49 294 2.0 9.0 0.00 0.00 0.00 67 1016.1
20200402154952 48 34 2.0 9.0 0.00 0.00 0.00 68 1016.2
20200402154452 47 11 2.0 8.0 0.00 0.00 0.00 71 1016.2
20200402153954 47 5 2.0 8.0 0.00 0.00 0.00 73 1016.1
20200402153453 46 304 2.0 5.0 0.00 0.00 0.00 75 1016.2
20200402152954 45 347 2.0 5.0 0.00 0.00 0.00 76 1016.2
20200402152451 45 329 2.0 6.0 0.00 0.00 0.00 77 1016.1
20200402151949 45 321 2.0 6.0 0.00 0.00 0.00 78 1016.1
20200402151449 44 5 2.0 4.0 0.00 0.00 0.00 79 1016.0
20200402150949 44 5 2.0 4.0 0.00 0.00 0.00 78 1016.0
20200402150449 43 56 2.0 4.0 0.00 0.00 0.00 81 1015.9
20200402145948 43 325 2.0 4.0 0.00 0.00 0.00 82 1015.9
20200402145449 43 32 2.0 4.0 0.00 0.00 0.00 83 1015.8
20200402144949 42 5 2.0 4.0 0.00 0.00 0.00 83 1015.7
20200402144450 42 5 1.0 4.0 0.00 0.00 0.00 83 1015.7
20200402143949 42 9 1.0 4.0 0.00 0.00 0.00 83 1015.7
20200402143450 42 302 1.0 6.0 0.00 0.00 0.00 82 1015.7
20200402142948 42 13 1.0 6.0 0.00 0.00 0.00 82 1015.7
20200402142450 42 18 2.0 6.0 0.00 0.00 0.00 81 1015.6
20200402141949 41 0 1.0 6.0 0.00 0.00 0.00 81 1015.5
20200402141450 41 10 1.0 4.0 0.00 0.00 0.00 80 1015.5
20200402140949 41 10 2.0 4.0 0.00 0.00 0.00 81 1015.5
20200402140450 41 350 2.0 4.0 0.00 0.00 0.00 82 1015.5
20200402135949 41 299 1.0 4.0 0.00 0.00 0.00 83 1015.4
20200402135450 41 301 0.0 3.0 0.00 0.00 0.00 84 1015.3
20200402134949 41 301 0.0 3.0 0.00 0.00 0.00 84 1015.3
20200402134450 41 301 0.0 3.0 0.00 0.00 0.00 85 1015.2
20200402133948 41 23 0.0 2.0 0.00 0.00 0.00 85 1015.3
20200402133449 41 23 1.0 2.0 0.00 0.00 0.00 85 1015.2
20200402132450 40 23 0.0 2.0 0.00 0.00 0.00 86 1015.2
20200402131949 40 23 0.0 0.0 0.00 0.00 0.00 86 1015.1
20200402131447 40 23 0.0 0.0 0.00 0.00 0.00 87 1015.0
20200402130947 40 23 0.0 2.0 0.00 0.00 0.00 87 1015.1
20200402130444 40 23 0.0 2.0 0.00 0.00 0.00 87 1015.0
20200402125944 40 23 0.0 2.0 0.00 0.00 0.00 87 1015.1
20200402125445 40 23 0.0 2.0 0.00 0.00 0.00 86 1015.0
20200402124945 40 23 0.0 0.0 0.00 0.00 0.00 86 1014.9
20200402124443 40 23 0.0 2.0 0.00 0.00 0.00 86 1014.8
20200402123943 40 23 0.0 2.0 0.00 0.00 0.00 86 1014.8
20200402123441 40 23 0.0 2.0 0.00 0.00 0.00 86 1014.8
20200402122942 40 23 0.0 2.0 0.00 0.00 0.00 86 1014.7
20200402122443 40 23 0.0 2.0 0.00 0.00 0.00 86 1014.7
20200402121942 40 23 0.0 2.0 0.00 0.00 0.00 86 1014.7
20200402121441 40 23 0.0 2.0 0.00 0.00 0.00 86 1014.6
20200402120942 41 23 0.0 2.0 0.00 0.00 0.00 86 1014.5
20200402120442 40 23 0.0 3.0 0.00 0.00 0.00 86 1014.6
20200402115943 40 23 0.0 3.0 0.00 0.00 0.00 86 1014.5
20200402115443 40 23 1.0 3.0 0.00 0.00 0.00 86 1014.5
20200402114941 40 23 1.0 4.0 0.00 0.00 0.00 86 1014.5
20200402114440 40 72 0.0 4.0 0.00 0.00 0.00 86 1014.6
20200402113941 40 355 0.0 2.0 0.00 0.00 0.00 86 1014.6
20200402113440 40 355 0.0 2.0 0.00 0.00 0.00 86 1014.6
20200402112941 40 355 0.0 1.0 0.00 0.00 0.00 86 1014.6
20200402112442 40 355 0.0 3.0 0.00 0.00 0.00 86 1014.7
20200402111941 40 355 1.0 3.0 0.00 0.00 0.00 85 1014.7
20200402111441 41 355 1.0 3.0 0.00 0.00 0.00 85 1014.7
20200402110939 41 355 1.0 3.0 0.00 0.00 0.00 85 1014.7
20200402110439 41 355 0.0 1.0 0.00 0.00 0.00 85 1014.7
20200402105939 41 355 1.0 3.0 0.00 0.00 0.00 85 1014.6
20200402105439 41 355 1.0 3.0 0.00 0.00 0.00 85 1014.6
20200402104939 41 355 1.0 3.0 0.00 0.00 0.00 85 1014.6
20200402104440 40 355 1.0 3.0 0.00 0.00 0.00 85 1014.6
20200402103940 40 327 0.0 2.0 0.00 0.00 0.00 85 1014.6
20200402103440 40 327 0.0 2.0 0.00 0.00 0.00 85 1014.6
20200402102939 40 327 1.0 3.0 0.00 0.00 0.00 85 1014.6
20200402102439 41 327 1.0 3.0 0.00 0.00 0.00 84 1014.6
20200402101940 41 327 1.0 3.0 0.00 0.00 0.00 85 1014.6
20200402101441 41 327 1.0 2.0 0.00 0.00 0.00 85 1014.5
20200402100938 41 327 0.0 2.0 0.00 0.00 0.00 85 1014.5
20200402100438 41 327 1.0 2.0 0.00 0.00 0.00 84 1014.5
20200402095937 41 327 2.0 3.0 0.00 0.00 0.00 84 1014.5
20200402095437 40 327 2.0 3.0 0.00 0.00 0.00 84 1014.5
20200402094938 40 327 1.0 3.0 0.00 0.00 0.00 83 1014.5
20200402094437 40 323 1.0 3.0 0.00 0.00 0.00 82 1014.5
20200402093938 40 323 1.0 3.0 0.00 0.00 0.00 80 1014.4
20200402093437 41 323 1.0 3.0 0.00 0.00 0.00 80 1014.3
20200402092939 41 323 1.0 3.0 0.00 0.00 0.00 80 1014.4
20200402092438 41 15 0.0 2.0 0.00 0.00 0.00 80 1014.3
20200402091437 41 15 0.0 0.0 0.00 0.00 0.00 79 1014.4
20200402090935 41 15 0.0 0.0 0.00 0.00 0.00 79 1014.5
20200402090437 41 15 0.0 0.0 0.00 0.00 0.00 78 1014.4
20200402085936 41 15 0.0 0.0 0.00 0.00 0.00 78 1014.4
20200402085435 41 15 0.0 0.0 0.00 0.00 0.00 78 1014.5
20200402084936 41 15 0.0 0.0 0.00 0.00 0.00 78 1014.4
20200402084437 41 15 0.0 0.0 0.00 0.00 0.00 78 1014.4
20200402083936 41 15 0.0 0.0 0.00 0.00 0.00 78 1014.4
20200402083435 41 15 0.0 0.0 0.00 0.00 0.00 79 1014.4
20200402082933 41 15 0.0 0.0 0.00 0.00 0.00 78 1014.3
20200402082433 41 15 0.0 0.0 0.00 0.00 0.00 78 1014.3
20200402081934 41 15 0.0 0.0 0.00 0.00 0.00 76 1014.3
20200402081434 41 15 0.0 0.0 0.00 0.00 0.00 75 1014.3
20200402080934 41 15 0.0 0.0 0.00 0.00 0.00 74 1014.2